Location: Perucca
(44.4667°N, 7.7667°E)
Time: 09:32:04
(UTC+00:00)

Daily predictions for brighter satellites

Satellite Brightness Start Highest point End
(mag) Time Altitude Azimuth Time Altitude Azimuth Time Altitude Azimuth
CZ-4C R/B 3.7 16:26:41 10° W 16:30:22 23° NNW 16:34:49 10° NNE
ATLAS 2AS CENTAUR R/B 4.3 16:28:54 10° NNW 16:33:05 17° NNE 16:37:14 10° NE
YAOGAN 1 4.3 16:32:45 10° E 16:34:37 13° ENE 16:36:28 10° NE
UNK 3.8 16:31:35 10° NNE 16:36:11 65° ESE 16:40:45 10° S
SJ 16-02 3.1 16:34:43 10° ESE 16:36:43 13° E 16:38:42 10° ENE
DNEPR-1 R/B 4.4 16:33:20 10° NW 16:37:51 63° WSW 16:43:06 10° SSE
ATLAS CENTAUR R/B 3.7 16:43:02 10° NW 16:43:57 11° NW 16:44:52 10° NNW
SAR-Lupe-4 3.6 16:41:28 10° SSE 16:44:59 57° ENE 16:48:30 10° N
ARIANE 5 R/B 2.5 16:40:41 10° SSE 16:45:33 60° ENE 16:50:29 10° N
Cosmos 1441 Rocket 4.5 16:44:05 10° NNW 16:47:14 39° W 16:50:24 10° SSW
Cosmos 1833 Rocket 3.1 16:42:45 10° NNW 16:48:23 69° WSW 16:53:58 10° SSE
USA 215 3.3 16:46:34 10° ESE 16:53:06 82° NE 16:59:41 10° NW
Meteor 2-12 Rocket 4.5 16:48:05 10° N 16:54:06 58° ENE 17:00:03 10° SSE
IRS-P3 4.2 16:51:09 10° SE 16:56:19 54° ENE 17:01:30 10° N
Timation 1 Rocket 4.4 16:50:57 10° NNW 16:56:50 56° ENE 17:02:40 10° SE
Okean 2 Rocket 4.4 16:54:39 10° SE 16:57:48 19° E 17:00:34 12° NE
MOS 1 Rocket 3.5 16:54:29 10° SE 16:58:31 40° ENE 17:02:42 10° N
SAR-Lupe-3 3.7 16:56:35 10° NNE 16:59:12 60° ESE 17:01:48 10° S
Timation 2 Rocket 4.2 16:53:40 10° SSW 17:00:28 71° ESE 17:07:19 10° NNE
ATLAS 5 CENTAUR R/B 2.5 16:57:38 10° NW 17:02:07 60° SW 17:07:38 10° SSE
SJ-6F 4.3 17:03:09 10° SSE 17:06:59 59° ENE 17:10:51 10° N
Cosmos 407 Rocket 3.4 17:03:25 10° SSW 17:08:37 85° ESE 17:13:47 10° NNE
Cosmos 2061 Rocket 4.4 17:03:35 10° SSW 17:09:51 68° W 17:16:05 10° N
RESURS DK-1 2.2 17:06:51 10° NNW 17:10:51 67° ENE 17:14:48 10° SE
Cosmos 1602 3.7 17:08:09 10° N 17:11:00 34° ENE 17:13:49 10° SE
Geosat FO 4.4 17:11:28 14° SE 17:13:40 39° ENE 17:16:24 10° NNW
CZ-2D R/B 3.1 17:11:45 10° S 17:14:52 66° WSW 17:18:01 10° NNW
ISS -3.4 17:12:03 10° WSW 17:15:21 58° NNW 17:17:12 23° NE
Cosmos 1869 3.0 17:12:28 10° S 17:15:58 79° W 17:19:30 10° N
USA 281 4.4 17:15:07 17° ENE 17:17:04 20° NE 17:21:32 10° N
SPOT 1/Viking Rocket 3.7 17:12:33 10° SE 17:17:29 49° ENE 17:22:29 10° N
SJ-12 4.2 17:17:53 10° S 17:21:39 63° W 17:25:25 10° NNW
Cosmos 1464 Rocket 4.1 17:17:07 10° SSE 17:23:11 53° E 17:29:14 10° NNE
COSMO-SKYMED 1 3.0 17:21:26 19° NE 17:23:51 35° E 17:27:39 10° SSE
AQUARIUS 4.2 17:21:00 10° S 17:25:24 78° WSW 17:29:50 10° NNW
SL-12 R/B(2) 4.4 17:18:59 10° SW 17:26:52 84° NW 17:36:35 10° NE
BREEZE-M DEB (TANK) 2.6 17:27:19 10° W 17:29:49 57° NNW 17:32:21 25° ENE
Cosmos 1400 Rocket 3.0 17:26:20 10° SSE 17:29:56 41° E 17:31:12 30° NE
Cosmos 540 Rocket 3.5 17:25:46 10° NNW 17:30:55 82° WSW 17:36:00 10° SSE
Spot 4 Rocket 4.0 17:26:21 10° SSE 17:31:17 55° ENE 17:36:16 10° N
Cosmos 1812 2.4 17:32:31 10° SSW 17:35:23 63° W 17:37:34 16° N
Cosmos 1763 Rocket 4.0 17:31:13 10° NNW 17:36:22 62° WSW 17:41:24 10° S
Cosmos 2034 Rocket 4.2 17:30:39 10° SSE 17:36:27 44° E 17:42:20 10° NNE
Cosmos 2151 Rocket 3.5 17:36:03 10° S 17:40:29 70° E 17:44:59 10° NNE
Cosmos 44 Rocket 3.6 17:39:04 10° SW 17:43:48 66° NW 17:47:06 20° NNE
Cosmos 2058 2.8 17:40:08 10° N 17:44:07 84° W 17:48:05 10° S
Cosmos 1943 Rocket 2.8 17:43:05 10° SW 17:48:36 56° WNW 17:54:06 10° NNE
Okean 1 Rocket 3.0 17:46:05 10° S 17:50:24 56° E 17:51:43 39° NE
CZ-2D R/B 3.4 17:46:18 10° SSE 17:50:25 84° WSW 17:54:39 10° NNW
SJ-7 3.9 17:46:48 10° SSE 17:50:27 77° ENE 17:54:09 10° N
SKYMED 2 3.6 17:46:09 10° N 17:50:31 80° WNW 17:54:52 10° SSW
IRAS Rocket 4.1 17:45:13 10° SSE 17:50:47 80° ENE 17:56:20 10° NNW
Sich 1 Rocket 3.6 17:46:59 10° S 17:51:26 60° E 17:53:29 30° NNE
PSLV R/B 3.2 17:48:00 10° SSE 17:52:01 71° ENE 17:56:02 10° N
Helios 1A Rocket 2.2 17:51:57 77° ENE 17:52:06 80° ESE 17:55:28 10° S
Cosmos 1092 Rocket 4.3 17:47:02 10° N 17:52:52 40° ENE 17:54:59 31° ESE
Cosmos 2082 Rocket 2.1 17:49:30 10° NNW 17:55:09 89° WSW 18:00:46 10° SSE
Cosmos 1072 Rocket 4.5 17:50:14 10° S 17:56:24 82° W 18:02:32 10° N
Cosmos 2278 Rocket 3.0 17:51:55 10° SW 17:57:24 51° WNW 18:02:47 11° NNE
Meteor 2-1 Rocket 4.4 17:51:45 10° S 17:57:27 54° E 18:02:22 15° NNE
NOAA 6 3.9 17:53:38 10° SSE 17:58:42 63° ENE 18:03:47 10° N
Cosmos 2026 Rocket 4.0 17:53:33 10° N 17:59:28 50° ENE 18:05:24 10° SSE
Aureole 3 Rocket 4.2 17:57:31 10° SW 18:00:13 29° WNW 18:03:02 10° NNW
BREEZE-M DEB (TANK) 3.4 17:58:38 10° W 18:01:33 64° NNW 18:03:16 40° NE
BREEZE-M DEB (TANK) 3.9 17:59:58 10° W 18:02:42 42° N 18:04:09 33° NNE
Geosat 4.0 18:04:10 53° ENE 18:04:33 54° ENE 18:09:26 10° NNW
BREEZE-M DEB (TANK) 4.2 17:50:31 10° WNW 18:05:57 86° SSW 18:07:58 43° ESE
Cosmos 2369 Rocket 3.9 18:02:55 10° SSE 18:04:20 16° SSE 18:04:20 16° SSE
Cosmos 2251 Rocket 4.1 18:02:54 10° SW 18:08:04 55° WNW 18:12:38 14° N
YAOGAN 1 2.7 18:05:39 10° S 18:09:53 71° WSW 18:14:09 10° NNW
Cosmos 371 Rocket 3.2 18:06:47 10° SSW 18:11:36 89° WNW 18:12:51 50° NNE
Cosmos 304 Rocket 3.7 18:07:57 10° SSW 18:12:40 84° WNW 18:13:57 49° NNE
SL-19 R/B 4.2 18:08:51 10° S 18:14:04 74° WSW 18:19:17 10° NNW
SJ 16-02 1.7 18:10:02 10° SSW 18:14:16 60° WNW 18:15:42 38° N
Cosmos 841 Rocket 3.3 18:10:53 10° NNW 18:16:11 79° ENE 18:17:16 56° SE
Nadezhda 4 Rocket 4.3 18:15:16 10° NNW 18:21:29 65° W 18:27:35 10° S
Resurs 1-3 4.1 18:17:40 10° S 18:21:53 56° W 18:26:08 10° NNW
ATLAS 2AS CENTAUR R/B 3.3 18:19:46 10° NNW 18:25:35 38° NNE 18:25:35 38° NNE
COSMOS 2406 3.1 18:22:14 10° NNW 18:27:57 89° WSW 18:29:08 58° SSE
Cosmos 1656 Rocket 3.5 18:22:53 10° SSW 18:28:25 80° ESE 18:28:33 80° E
Cosmos 1627 Rocket 4.3 18:23:51 10° N 18:30:01 81° E 18:36:12 10° S
Okean 2 Rocket 4.4 18:31:20 10° SW 18:35:27 39° WNW 18:37:52 21° NNW
Resurs 01 Rocket 4.2 18:46:22 12° NNW 18:46:22 12° NNW 18:46:46 10° NNW
Cosmos 2344 3.9 18:36:22 10° NW 18:44:27 76° NE 18:47:32 50° SE
Meteor 2-3 Rocket 4.0 18:41:39 10° NNW 18:47:18 65° W 18:49:59 31° SSW
ISS -0.4 18:49:47 10° WNW 18:50:07 12° WNW 18:50:07 12° WNW
USA 281 3.4 19:02:00 59° N 19:02:00 59° N 19:07:15 10° NNW
